AKDT,Max TemperatureF,Mean TemperatureF,Min TemperatureF,Max Dew PointF,MeanDew PointF,Min DewpointF,Max Humidity, Mean Humidity, Min Humidity, Max Sea Level PressureIn, Mean Sea Level PressureIn, Min Sea Level PressureIn, Max VisibilityMiles, Mean VisibilityMiles, Min VisibilityMiles, Max Wind SpeedMPH, Mean Wind SpeedMPH, Max Gust SpeedMPH,PrecipitationIn, CloudCover, Events, WindDirDegrees
2012-9-1,57,52,48,48,47,45,93,83,67,29.92,29.86,29.83,10,10,6,15,9,26,0.23,6,Rain,91
2012-9-2,57,53,51,49,48,47,92,85,77,30.07,29.98,29.85,10,10,9,15,10,26,0.03,7,Rain,94
2012-9-3,55,53,51,51,50,48,93,89,80,30.09,30.05,29.96,10,10,10,17,10,31,0.00,8,,86
2012-9-4,59,55,53,52,49,45,94,82,72,30.23,30.09,29.94,10,10,10,16,12,31,0.01,7,,93
2012-9-5,55,53,51,50,47,45,94,82,74,30.24,30.16,30.04,10,10,10,18,11,34,0.00,7,,98
2012-9-6,57,53,51,50,47,44,93,79,69,30.32,30.21,30.09,10,10,10,15,11,28,0.00,6,,94
2012-9-7,53,50,48,50,46,43,94,85,71,30.34,30.12,29.92,10,8,3,17,9,26,0.66,7,Rain,83
2012-9-8,55,50,46,50,47,44,96,89,75,29.94,29.70,29.48,10,8,2,14,6,21,1.01,7,Rain,339
2012-9-9,53,46,42,47,44,42,100,92,76,29.64,29.49,29.43,10,9,3,10,5,,0.23,7,Rain,286
2012-9-10,50,44,39,44,42,39,100,95,68,29.99,29.80,29.66,10,6,0,9,4,,0.04,7,Fog-Rain,289
2012-9-11,48,42,37,45,42,36,100,92,83,30.10,30.04,29.97,10,9,2,13,5,21,0.06,8,,74
2012-9-12,54,49,44,51,46,44,100,93,77,29.95,29.86,29.82,10,6,2,14,6,26,0.55,8,Rain,115
2012-9-13,53,48,44,48,47,43,100,95,77,29.94,29.78,29.58,10,6,1,13,5,20,1.33,8,Rain,303
2012-9-14,53,50,46,49,47,45,97,89,82,30.20,30.04,29.69,10,10,5,15,6,26,0.26,8,Rain,90
2012-9-15,52,50,48,48,47,46,94,88,82,30.35,30.31,30.20,10,10,10,17,10,28,0.02,8,,95
2012-9-16,55,51,48,47,46,43,93,83,71,30.32,30.26,30.11,10,10,8,16,12,30,0.02,7,,97
2012-9-17,55,52,50,49,47,43,94,85,74,30.16,30.07,30.02,10,10,8,14,9,23,0.11,7,Rain,93
2012-9-18,54,46,39,46,42,39,97,81,68,30.24,30.22,30.18,10,10,10,10,7,21,0.00,5,,72
2012-9-19,54,47,41,47,44,40,97,82,69,30.29,30.27,30.24,10,10,5,9,6,,0.00,6,Rain,97
2012-9-20,57,50,46,52,48,46,100,93,83,30.29,30.19,30.04,10,8,3,12,5,,0.02,7,Rain,308
2012-9-21,59,52,46,52,48,45,100,92,77,30.06,30.04,30.02,10,10,3,8,2,,0.00,5,,144
2012-9-22,62,54,46,52,49,46,100,88,67,30.04,29.98,29.91,10,8,1,16,4,25,0.08,6,Rain,101
2012-9-23,57,54,51,53,50,48,94,86,74,30.03,29.97,29.94,10,10,8,18,13,32,0.05,8,Rain,85
2012-9-24,54,52,50,48,46,44,86,79,71,30.21,30.14,30.03,10,10,10,13,8,23,0.00,7,Rain,82
2012-9-25,53,50,48,47,46,43,93,86,74,30.20,30.01,29.83,10,9,5,18,8,31,0.25,8,Rain,100
2012-9-26,51,47,43,46,45,41,97,89,80,29.88,29.78,29.30,10,9,4,16,11,29,0.97,8,Rain,87
2012-9-27,48,45,42,46,45,41,97,91,83,29.62,29.45,29.17,10,8,2,17,10,36,1.05,8,Rain,101
2012-9-28,51,48,46,47,45,43,97,88,82,29.81,29.71,29.61,10,10,6,17,12,31,0.20,8,Rain,93
2012-9-29,52,48,44,46,43,40,93,85,74,29.96,29.88,29.81,10,10,10,15,10,29,0.00,7,Rain,100
2012-9-30,51,44,39,43,39,35,93,82,59,30.14,30.05,29.92,10,10,10,13,8,24,0.00,3,,95